When you browse on this site, cookies collect data to enhance your experience and personalize the content and advertising you see.
Visit our Privacy Policy to learn more. By continuing to use the site, you agree to this use of cookies and data.
  • In Latvia
  • List of Countries
  • For 7 days
  • Water Temperature
  • Weather Map
  • Weather Widgets
  • user-avatar
    Login

    Hourly Weather Luksor

    Today, 26 May, Tuesday

    Time Temperature Precipitation Wind Pressure Humidity
    00:00 +26°C° 0 mm 3 mps 751 mmHg 16%
    01:00 +25°C° 0 mm 2 mps 751 mmHg 17%
    02:00 +24°C° 0 mm 2 mps 750 mmHg 18%
    03:00 +23°C° 0 mm 2 mps 750 mmHg 19%
    04:00 +23°C° 0 mm 2 mps 751 mmHg 20%
    05:00 +21°C° 0 mm 2 mps 751 mmHg 22%
    06:00 +24°C° 0 mm 2 mps 751 mmHg 19%
    07:00 +26°C° 0 mm 2 mps 751 mmHg 17%
    08:00 +28°C° 0 mm 2 mps 751 mmHg 14%
    09:00 +30°C° 0 mm 2 mps 751 mmHg 12%
    10:00 +34°C° 0 mm 3 mps 751 mmHg 10%
    11:00 +36°C° 0 mm 3 mps 751 mmHg 8%
    12:00 +37°C° 0 mm 3 mps 750 mmHg 7%
    13:00 +38°C° 0 mm 2 mps 750 mmHg 6%
    14:00 +40°C° 0 mm 2 mps 749 mmHg 5%
    15:00 +40°C° 0 mm 3 mps 749 mmHg 5%
    16:00 +41°C° 0 mm 4 mps 749 mmHg 4%
    17:00 +41°C° 0 mm 4 mps 749 mmHg 4%
    18:00 +39°C° 0 mm 5 mps 749 mmHg 6%
    19:00 +36°C° 0 mm 5 mps 749 mmHg 8%
    20:00 +34°C° 0 mm 5 mps 750 mmHg 10%
    21:00 +33°C° 0 mm 5 mps 750 mmHg 12%
    22:00 +32°C° 0 mm 5 mps 750 mmHg 14%
    23:00 +30°C° 0 mm 5 mps 750 mmHg 16%

    Tomorrow, 27 May, Wednesday

    Time Temperature Precipitation Wind Pressure Humidity
    00:00 +29°C° 0 mm 4 mps 750 mmHg 17%
    01:00 +28°C° 0 mm 4 mps 750 mmHg 18%
    02:00 +27°C° 0 mm 3 mps 749 mmHg 19%
    03:00 +26°C° 0 mm 3 mps 749 mmHg 20%
    04:00 +25°C° 0 mm 2 mps 750 mmHg 20%
    05:00 +25°C° 0 mm 2 mps 750 mmHg 21%
    06:00 +27°C° 0 mm 2 mps 750 mmHg 19%
    07:00 +29°C° 0 mm 3 mps 751 mmHg 17%
    08:00 +31°C° 0 mm 3 mps 751 mmHg 15%
    09:00 +34°C° 0 mm 3 mps 751 mmHg 13%
    10:00 +36°C° 0 mm 3 mps 751 mmHg 11%
    11:00 +38°C° 0 mm 3 mps 751 mmHg 9%
    12:00 +39°C° 0 mm 3 mps 750 mmHg 8%
    13:00 +42°C° 0 mm 3 mps 750 mmHg 7%
    14:00 +43°C° 0 mm 3 mps 749 mmHg 6%
    15:00 +43°C° 0 mm 4 mps 749 mmHg 7%
    16:00 +42°C° 0 mm 6 mps 749 mmHg 7%
    17:00 +43°C° 0 mm 7 mps 749 mmHg 7%
    18:00 +40°C° 0 mm 7 mps 749 mmHg 9%
    19:00 +38°C° 0 mm 7 mps 750 mmHg 10%
    20:00 +35°C° 0 mm 7 mps 750 mmHg 12%
    21:00 +34°C° 0 mm 6 mps 750 mmHg 13%
    22:00 +33°C° 0 mm 5 mps 751 mmHg 14%
    23:00 +30°C° 0 mm 4 mps 751 mmHg 15%

    Day after tomorrow, 28 May, Thursday

    Time Temperature Precipitation Wind Pressure Humidity
    00:00 +29°C° 0 mm 4 mps 751 mmHg 17%
    01:00 +28°C° 0 mm 4 mps 750 mmHg 20%
    02:00 +27°C° 0 mm 3 mps 750 mmHg 22%
    03:00 +26°C° 0 mm 3 mps 750 mmHg 25%
    04:00 +26°C° 0 mm 3 mps 751 mmHg 29%
    05:00 +25°C° 0 mm 3 mps 751 mmHg 32%
    06:00 +27°C° 0 mm 3 mps 751 mmHg 29%
    07:00 +29°C° 0 mm 4 mps 751 mmHg 27%
    08:00 +32°C° 0 mm 5 mps 752 mmHg 24%
    09:00 +34°C° 0 mm 5 mps 751 mmHg 20%
    10:00 +36°C° 0 mm 6 mps 751 mmHg 17%
    11:00 +39°C° 0 mm 6 mps 751 mmHg 13%
    12:00 +40°C° 0 mm 6 mps 750 mmHg 11%
    13:00 +41°C° 0 mm 6 mps 750 mmHg 9%
    14:00 +43°C° 0 mm 7 mps 749 mmHg 8%
    15:00 +43°C° 0 mm 7 mps 749 mmHg 8%
    16:00 +41°C° 0 mm 8 mps 749 mmHg 7%
    17:00 +40°C° 0 mm 8 mps 749 mmHg 7%
    18:00 +38°C° 0 mm 8 mps 750 mmHg 9%
    19:00 +35°C° 0 mm 8 mps 750 mmHg 10%
    20:00 +33°C° 0 mm 7 mps 751 mmHg 11%
    21:00 +32°C° 0 mm 7 mps 751 mmHg 12%
    22:00 +30°C° 0 mm 6 mps 751 mmHg 13%
    23:00 +29°C° 0 mm 5 mps 752 mmHg 13%

    29 May, Friday

    Time Temperature Precipitation Wind Pressure Humidity
    00:00 +28°C° 0 mm 5 mps 751 mmHg 15%
    01:00 +27°C° 0 mm 4 mps 751 mmHg 16%
    02:00 +26°C° 0 mm 4 mps 751 mmHg 18%
    03:00 +26°C° 0 mm 4 mps 751 mmHg 19%
    04:00 +25°C° 0 mm 4 mps 751 mmHg 20%
    05:00 +25°C° 0 mm 3 mps 751 mmHg 22%
    06:00 +27°C° 0 mm 5 mps 752 mmHg 21%
    07:00 +29°C° 0 mm 6 mps 752 mmHg 19%
    08:00 +32°C° 0 mm 7 mps 752 mmHg 18%
    09:00 +34°C° 0 mm 8 mps 752 mmHg 16%
    10:00 +38°C° 0 mm 8 mps 752 mmHg 14%
    11:00 +40°C° 0 mm 8 mps 752 mmHg 12%
    12:00 +42°C° 0 mm 9 mps 752 mmHg 11%
    13:00 +42°C° 0 mm 9 mps 751 mmHg 11%
    14:00 +43°C° 0 mm 9 mps 750 mmHg 10%
    15:00 +42°C° 0 mm 9 mps 750 mmHg 10%
    16:00 +42°C° 0 mm 10 mps 750 mmHg 11%
    17:00 +40°C° 0 mm 10 mps 750 mmHg 11%
    18:00 +38°C° 0 mm 9 mps 750 mmHg 12%
    19:00 +35°C° 0 mm 8 mps 751 mmHg 13%
    20:00 +33°C° 0 mm 7 mps 751 mmHg 15%
    21:00 +30°C° 0 mm 6 mps 752 mmHg 15%
    22:00 +29°C° 0 mm 5 mps 752 mmHg 14%
    23:00 +28°C° 0 mm 4 mps 752 mmHg 14%

    30 May, Saturday

    Time Temperature Precipitation Wind Pressure Humidity
    00:00 +26°C° 0 mm 4 mps 752 mmHg 16%
    01:00 +25°C° 0 mm 3 mps 751 mmHg 17%
    02:00 +24°C° 0 mm 2 mps 751 mmHg 18%
    03:00 +24°C° 0 mm 2 mps 751 mmHg 20%
    04:00 +24°C° 0 mm 2 mps 751 mmHg 21%
    05:00 +22°C° 0 mm 3 mps 751 mmHg 22%
    06:00 +25°C° 0 mm 3 mps 752 mmHg 21%
    07:00 +27°C° 0 mm 4 mps 752 mmHg 19%
    08:00 +29°C° 0 mm 5 mps 752 mmHg 17%
    09:00 +33°C° 0 mm 6 mps 752 mmHg 14%
    10:00 +35°C° 0 mm 6 mps 752 mmHg 11%
    11:00 +38°C° 0 mm 6 mps 751 mmHg 8%
    12:00 +39°C° 0 mm 7 mps 751 mmHg 7%
    13:00 +41°C° 0 mm 8 mps 751 mmHg 7%
    14:00 +43°C° 0 mm 8 mps 750 mmHg 6%
    15:00 +42°C° 0 mm 9 mps 750 mmHg 6%
    16:00 +42°C° 0 mm 9 mps 750 mmHg 6%
    17:00 +40°C° 0 mm 9 mps 750 mmHg 6%
    18:00 +38°C° 0 mm 8 mps 750 mmHg 7%
    19:00 +35°C° 0 mm 7 mps 751 mmHg 8%
    20:00 +34°C° 0 mm 6 mps 751 mmHg 9%
    21:00 +32°C° 0 mm 6 mps 751 mmHg 9%
    22:00 +30°C° 0 mm 5 mps 752 mmHg 9%
    23:00 +29°C° 0 mm 4 mps 752 mmHg 9%

    31 May, Sunday

    Time Temperature Precipitation Wind Pressure Humidity
    00:00 +28°C° 0 mm 4 mps 752 mmHg 10%
    01:00 +27°C° 0 mm 3 mps 752 mmHg 12%
    02:00 +26°C° 0 mm 3 mps 751 mmHg 13%
    03:00 +25°C° 0 mm 3 mps 751 mmHg 14%
    04:00 +25°C° 0 mm 3 mps 751 mmHg 16%
    05:00 +24°C° 0 mm 2 mps 752 mmHg 17%
    06:00 +27°C° 0 mm 3 mps 752 mmHg 16%
    07:00 +29°C° 0 mm 4 mps 752 mmHg 15%
    08:00 +32°C° 0 mm 5 mps 752 mmHg 13%
    09:00 +35°C° 0 mm 6 mps 752 mmHg 11%
    10:00 +39°C° 0 mm 6 mps 752 mmHg 10%
    11:00 +41°C° 0 mm 7 mps 752 mmHg 8%
    12:00 +43°C° 0 mm 8 mps 751 mmHg 8%
    13:00 +44°C° 0 mm 8 mps 751 mmHg 7%
    14:00 +45°C° 0 mm 9 mps 750 mmHg 7%
    15:00 +44°C° 0 mm 9 mps 750 mmHg 8%
    16:00 +43°C° 0 mm 9 mps 750 mmHg 8%
    17:00 +42°C° 0 mm 10 mps 750 mmHg 8%
    18:00 +39°C° 0 mm 8 mps 750 mmHg 9%
    19:00 +36°C° 0 mm 7 mps 751 mmHg 10%
    20:00 +34°C° 0 mm 6 mps 751 mmHg 11%
    21:00 +33°C° 0 mm 5 mps 751 mmHg 13%
    22:00 +32°C° 0 mm 5 mps 752 mmHg 14%
    23:00 +29°C° 0 mm 4 mps 752 mmHg 16%
    Show more